AZA88LF LIMC-LEMG

Flight info

Callsign AZA88LF
Flight time 2h 18m
Altitude 33000
Route NEDED DCT GEKBA DCT VAMTU DCT KOLON DCT GANGU DCT PADKO DCT DIVKO DCT NILDU DCT NENDA DCT BCN M985 VIBAS
Aircraft MD82/M-SDFGIRWY/S

Departure

Time 2026-05-07 08:06
Airport Milan Malpensa International Airport (LIMC)

Arrival

Time 2026-05-07 10:24
Airport Málaga-Costa del Sol Airport (LEMG)
Time Latitude Longitude Altitude Speed Heading
2026-05-07 07:25 45.62688 8.71489 741 ft 0 kts 12°
2026-05-07 07:26 45.62676 8.71486 740 ft 0 kts 12°
2026-05-07 07:51 45.62655 8.71485 740 ft 4 kts 339°
2026-05-07 07:52 45.62635 8.71505 740 ft 4 kts 314°
2026-05-07 07:52 45.62620 8.71526 741 ft 4 kts 324°
2026-05-07 07:52 45.62603 8.71535 739 ft 4 kts 18°
2026-05-07 07:52 45.62605 8.71540 738 ft 4 kts 44°
2026-05-07 07:53 45.62616 8.71572 741 ft 4 kts 71°
2026-05-07 07:53 45.62622 8.71610 741 ft 4 kts 79°
2026-05-07 07:53 45.62626 8.71647 741 ft 4 kts 81°
2026-05-07 07:53 45.62631 8.71686 741 ft 4 kts 79°
2026-05-07 07:54 45.62632 8.71699 741 ft 0 kts 79°
2026-05-07 07:56 45.62633 8.71701 741 ft 0 kts 79°
2026-05-07 07:56 45.62638 8.71744 741 ft 8 kts 79°
2026-05-07 07:56 45.62635 8.71819 741 ft 7 kts 131°
2026-05-07 07:57 45.62590 8.71846 740 ft 7 kts 169°
2026-05-07 07:57 45.62533 8.71862 742 ft 11 kts 169°
2026-05-07 07:57 45.62427 8.71891 742 ft 19 kts 169°
2026-05-07 07:57 45.62293 8.71928 742 ft 19 kts 169°
2026-05-07 07:58 45.62163 8.71964 740 ft 19 kts 169°
2026-05-07 07:58 45.62034 8.72000 742 ft 19 kts 169°
2026-05-07 07:58 45.61909 8.72035 742 ft 18 kts 168°
2026-05-07 07:58 45.61785 8.72069 740 ft 18 kts 169°
2026-05-07 07:59 45.61665 8.72102 742 ft 18 kts 169°
2026-05-07 07:59 45.61546 8.72135 742 ft 17 kts 169°
2026-05-07 07:59 45.61430 8.72167 742 ft 17 kts 169°
2026-05-07 07:59 45.61314 8.72199 740 ft 17 kts 169°
2026-05-07 08:00 45.61200 8.72230 742 ft 17 kts 169°
2026-05-07 08:00 45.61088 8.72262 742 ft 16 kts 169°
2026-05-07 08:00 45.60966 8.72295 742 ft 21 kts 169°
2026-05-07 08:00 45.60818 8.72336 742 ft 21 kts 169°
2026-05-07 08:01 45.60680 8.72389 742 ft 20 kts 146°
2026-05-07 08:01 45.60632 8.72566 742 ft 19 kts 96°
2026-05-07 08:01 45.60618 8.72756 742 ft 19 kts 96°
2026-05-07 08:01 45.60604 8.72942 742 ft 19 kts 96°
2026-05-07 08:02 45.60590 8.73137 742 ft 20 kts 89°
2026-05-07 08:02 45.60671 8.73291 741 ft 21 kts 24°
2026-05-07 08:02 45.60807 8.73370 741 ft 21 kts 22°
2026-05-07 08:02 45.60950 8.73392 742 ft 21 kts 349°
2026-05-07 08:03 45.61086 8.73355 742 ft 20 kts 349°
2026-05-07 08:03 45.61219 8.73318 742 ft 19 kts 349°
2026-05-07 08:03 45.61347 8.73283 742 ft 18 kts 349°
2026-05-07 08:03 45.61471 8.73248 742 ft 18 kts 349°
2026-05-07 08:04 45.61590 8.73233 742 ft 16 kts 29°
2026-05-07 08:04 45.61631 8.73374 742 ft 16 kts 84°
2026-05-07 08:04 45.61597 8.73517 741 ft 15 kts 116°
2026-05-07 08:04 45.61592 8.73665 740 ft 16 kts 70°
2026-05-07 08:05 45.61693 8.73718 740 ft 27 kts 350°
2026-05-07 08:05 45.62069 8.73613 740 ft 87 kts 349°
2026-05-07 08:05 45.62864 8.73393 739 ft 143 kts 349°
2026-05-07 08:05 45.63956 8.73088 942 ft 169 kts 349°
2026-05-07 08:06 45.65097 8.72806 1694 ft 165 kts 354°
2026-05-07 08:06 45.66259 8.72678 2326 ft 169 kts 357°
2026-05-07 08:06 45.67444 8.72616 2944 ft 170 kts 359°
2026-05-07 08:06 45.68618 8.72579 3593 ft 169 kts 359°
2026-05-07 08:07 45.69784 8.72551 4056 ft 180 kts 360°
2026-05-07 08:07 45.71078 8.72519 4528 ft 189 kts 357°
2026-05-07 08:07 45.72400 8.72091 4954 ft 204 kts 332°
2026-05-07 08:07 45.73478 8.70725 5424 ft 214 kts 306°
2026-05-07 08:08 45.74168 8.68830 5871 ft 226 kts 286°
2026-05-07 08:08 45.74371 8.66528 6339 ft 237 kts 265°
2026-05-07 08:08 45.74025 8.64282 7160 ft 232 kts 248°
2026-05-07 08:08 45.73185 8.62258 7681 ft 241 kts 230°
2026-05-07 08:09 45.72043 8.60432 8178 ft 251 kts 227°
2026-05-07 08:09 45.70927 8.58505 8767 ft 254 kts 233°
2026-05-07 08:09 45.69861 8.56444 9255 ft 267 kts 235°
2026-05-07 08:09 45.68742 8.54216 9469 ft 286 kts 232°
2026-05-07 08:10 45.67221 8.52335 9941 ft 294 kts 208°
2026-05-07 08:10 45.65347 8.51073 10383 ft 304 kts 205°
2026-05-07 08:10 45.63372 8.49759 10579 ft 321 kts 206°
2026-05-07 08:10 45.61288 8.48393 10770 ft 338 kts 205°
2026-05-07 08:11 45.59095 8.47035 11109 ft 348 kts 204°
2026-05-07 08:11 45.56851 8.45706 11709 ft 349 kts 203°
2026-05-07 08:11 45.54613 8.44431 12354 ft 350 kts 202°
2026-05-07 08:11 45.52309 8.43246 12908 ft 353 kts 200°
2026-05-07 08:12 45.49968 8.42113 13479 ft 356 kts 200°
2026-05-07 08:12 45.47624 8.40998 14003 ft 359 kts 200°
2026-05-07 08:12 45.45246 8.39865 14511 ft 361 kts 200°
2026-05-07 08:12 45.42852 8.38714 15028 ft 363 kts 201°
2026-05-07 08:13 45.40447 8.37543 15525 ft 366 kts 201°
2026-05-07 08:13 45.38021 8.36350 15999 ft 369 kts 201°
2026-05-07 08:13 45.35608 8.35157 16474 ft 372 kts 201°
2026-05-07 08:13 45.33154 8.33939 16992 ft 374 kts 201°
2026-05-07 08:14 45.30683 8.32714 17470 ft 377 kts 201°
2026-05-07 08:14 45.28193 8.31480 17934 ft 380 kts 202°
2026-05-07 08:14 45.25715 8.30257 18388 ft 382 kts 202°
2026-05-07 08:14 45.23198 8.29015 18827 ft 384 kts 202°
2026-05-07 08:15 45.20658 8.27763 19266 ft 386 kts 202°
2026-05-07 08:15 45.18125 8.26516 19672 ft 389 kts 202°
2026-05-07 08:15 45.15558 8.25253 20108 ft 391 kts 202°
2026-05-07 08:15 45.12971 8.23983 20565 ft 393 kts 202°
2026-05-07 08:16 45.10351 8.22791 20983 ft 398 kts 196°
2026-05-07 08:16 45.07681 8.22062 21381 ft 402 kts 191°
2026-05-07 08:16 45.04896 8.21507 21782 ft 406 kts 190°
2026-05-07 08:16 45.02069 8.20977 22215 ft 408 kts 191°
2026-05-07 08:17 44.99247 8.20446 22666 ft 410 kts 191°
2026-05-07 08:17 44.96446 8.19902 23057 ft 413 kts 191°
2026-05-07 08:17 44.93594 8.19319 23465 ft 415 kts 191°
2026-05-07 08:17 44.90720 8.18711 23849 ft 417 kts 192°
2026-05-07 08:18 44.87848 8.18092 24265 ft 416 kts 192°
2026-05-07 08:18 44.84981 8.17471 24683 ft 417 kts 192°
2026-05-07 08:18 44.82139 8.16851 25011 ft 419 kts 193°
2026-05-07 08:18 44.79253 8.16220 25366 ft 421 kts 193°
2026-05-07 08:19 44.76355 8.15589 25729 ft 422 kts 193°
2026-05-07 08:19 44.73440 8.14959 26132 ft 423 kts 193°
2026-05-07 08:19 44.70511 8.14301 26430 ft 423 kts 198°
2026-05-07 08:19 44.67792 8.12897 26890 ft 411 kts 213°
2026-05-07 08:20 44.65353 8.10905 27319 ft 409 kts 216°
2026-05-07 08:20 44.62943 8.08763 27601 ft 411 kts 217°
2026-05-07 08:20 44.60527 8.06584 27954 ft 412 kts 217°
2026-05-07 08:20 44.58113 8.04419 28509 ft 408 kts 217°
2026-05-07 08:21 44.55754 8.02332 29127 ft 403 kts 217°
2026-05-07 08:21 44.53373 8.00257 29719 ft 399 kts 217°
2026-05-07 08:21 44.51014 7.98226 30202 ft 396 kts 217°
2026-05-07 08:21 44.48662 7.96217 30501 ft 397 kts 217°
2026-05-07 08:22 44.46305 7.94203 30561 ft 403 kts 217°
2026-05-07 08:22 44.43901 7.92159 30780 ft 404 kts 217°
2026-05-07 08:22 44.41494 7.90119 31135 ft 402 kts 216°
2026-05-07 08:22 44.39102 7.88086 31482 ft 400 kts 217°
2026-05-07 08:23 44.36745 7.86085 31768 ft 400 kts 216°
2026-05-07 08:23 44.34358 7.84060 31965 ft 400 kts 216°
2026-05-07 08:23 44.31981 7.82048 32336 ft 396 kts 216°
2026-05-07 08:23 44.29660 7.80082 32694 ft 394 kts 216°
2026-05-07 08:24 44.27310 7.78074 32845 ft 395 kts 219°
2026-05-07 08:24 44.23048 7.73193 32957 ft 399 kts 226°
2026-05-07 08:25 44.18904 7.67915 32978 ft 409 kts 226°
2026-05-07 08:25 44.14688 7.62594 32949 ft 409 kts 227°
2026-05-07 08:26 44.09059 7.53817 32950 ft 404 kts 233°
2026-05-07 08:26 44.05425 7.47868 32981 ft 406 kts 233°
2026-05-07 08:27 44.01752 7.41931 32980 ft 405 kts 232°
2026-05-07 08:27 43.98033 7.36032 32967 ft 403 kts 232°
2026-05-07 08:28 43.94346 7.30207 32978 ft 400 kts 232°
2026-05-07 08:28 43.90703 7.24442 32955 ft 400 kts 232°
2026-05-07 08:29 43.87021 7.18611 32983 ft 402 kts 232°
2026-05-07 08:29 43.83312 7.12771 32984 ft 402 kts 232°
2026-05-07 08:30 43.79642 7.07035 32975 ft 398 kts 232°
2026-05-07 08:30 43.75980 7.01269 32998 ft 401 kts 232°
2026-05-07 08:31 43.72357 6.95392 32987 ft 398 kts 240°
2026-05-07 08:31 43.70056 6.88560 32976 ft 394 kts 250°
2026-05-07 08:32 43.68055 6.81473 32980 ft 395 kts 250°
2026-05-07 08:32 43.66041 6.74403 32977 ft 395 kts 249°
2026-05-07 08:33 43.63977 6.67369 32974 ft 395 kts 249°
2026-05-07 08:33 43.61901 6.60404 32976 ft 395 kts 249°
2026-05-07 08:34 43.59802 6.53366 32979 ft 396 kts 249°
2026-05-07 08:34 43.57720 6.46385 32993 ft 394 kts 249°
2026-05-07 08:35 43.55627 6.39378 32989 ft 395 kts 249°
2026-05-07 08:35 43.53505 6.32441 32989 ft 395 kts 249°
2026-05-07 08:36 43.51380 6.25451 32991 ft 395 kts 249°
2026-05-07 08:36 43.49274 6.18433 32989 ft 395 kts 249°
2026-05-07 08:37 43.47187 6.11450 32986 ft 395 kts 249°
2026-05-07 08:37 43.45090 6.04487 32985 ft 397 kts 249°
2026-05-07 08:38 43.42924 5.97462 32988 ft 398 kts 248°
2026-05-07 08:38 43.40759 5.90430 32989 ft 398 kts 249°
2026-05-07 08:39 43.38622 5.83455 32986 ft 397 kts 249°
2026-05-07 08:39 43.36490 5.76486 32986 ft 396 kts 249°
2026-05-07 08:40 43.34713 5.70680 32992 ft 396 kts 249°
2026-05-07 08:40 43.32563 5.63652 32991 ft 399 kts 248°
2026-05-07 08:41 43.30418 5.56667 32990 ft 399 kts 249°
2026-05-07 08:41 43.28238 5.49625 32984 ft 400 kts 248°
2026-05-07 08:42 43.26053 5.42649 32992 ft 400 kts 248°
2026-05-07 08:42 43.23874 5.35632 32992 ft 400 kts 248°
2026-05-07 08:43 43.20963 5.29172 32999 ft 403 kts 234°
2026-05-07 08:43 43.17415 5.23230 32996 ft 404 kts 233°
2026-05-07 08:44 43.13965 5.17426 33001 ft 404 kts 234°
2026-05-07 08:44 43.10554 5.11560 32990 ft 404 kts 234°
2026-05-07 08:45 43.07102 5.05548 33007 ft 403 kts 234°
2026-05-07 08:45 43.03628 4.99499 33010 ft 404 kts 234°
2026-05-07 08:46 43.00164 4.93485 33008 ft 404 kts 234°
2026-05-07 08:46 42.96678 4.87454 33013 ft 405 kts 234°
2026-05-07 08:47 42.93175 4.81463 33014 ft 405 kts 234°
2026-05-07 08:47 42.89647 4.75446 33011 ft 405 kts 233°
2026-05-07 08:48 42.86131 4.69440 33015 ft 406 kts 233°
2026-05-07 08:48 42.82625 4.63452 33014 ft 406 kts 234°
2026-05-07 08:49 42.79105 4.57446 33016 ft 405 kts 233°
2026-05-07 08:49 42.75598 4.51464 33018 ft 405 kts 233°
2026-05-07 08:50 42.72096 4.45509 33017 ft 404 kts 233°
2026-05-07 08:50 42.68562 4.39532 33019 ft 404 kts 233°
2026-05-07 08:51 42.65020 4.33588 33019 ft 405 kts 233°
2026-05-07 08:51 42.61494 4.27665 33019 ft 405 kts 233°
2026-05-07 08:52 42.57959 4.21723 33021 ft 405 kts 233°
2026-05-07 08:52 42.54406 4.15745 33026 ft 406 kts 233°
2026-05-07 08:53 42.50885 4.09829 33017 ft 406 kts 232°
2026-05-07 08:53 42.47326 4.03873 33021 ft 406 kts 232°
2026-05-07 08:54 42.43766 3.97930 33020 ft 406 kts 232°
2026-05-07 08:54 42.40206 3.92038 33022 ft 405 kts 232°
2026-05-07 08:55 42.36642 3.86146 33022 ft 404 kts 232°
2026-05-07 08:55 42.33090 3.80261 33020 ft 405 kts 232°
2026-05-07 08:56 42.29515 3.74329 33026 ft 409 kts 232°
2026-05-07 08:56 42.25896 3.68357 33019 ft 409 kts 232°
2026-05-07 08:57 42.22318 3.62456 33015 ft 407 kts 232°
2026-05-07 08:57 42.18731 3.56543 33025 ft 407 kts 232°
2026-05-07 08:58 42.15128 3.50646 33021 ft 408 kts 231°
2026-05-07 08:58 42.11532 3.44787 33018 ft 408 kts 231°
2026-05-07 08:59 42.07912 3.38887 33013 ft 408 kts 231°
2026-05-07 08:59 42.04301 3.32998 33015 ft 409 kts 231°
2026-05-07 09:00 42.00665 3.27071 33021 ft 409 kts 231°
2026-05-07 09:00 41.97045 3.21182 33026 ft 409 kts 231°
2026-05-07 09:01 41.93424 3.15299 33007 ft 409 kts 231°
2026-05-07 09:01 41.89775 3.09482 33018 ft 407 kts 230°
2026-05-07 09:02 41.86066 3.03724 33033 ft 407 kts 230°
2026-05-07 09:02 41.82433 2.97905 33026 ft 408 kts 231°
2026-05-07 09:03 41.78840 2.92041 33018 ft 408 kts 231°
2026-05-07 09:03 41.75227 2.86130 33020 ft 408 kts 231°
2026-05-07 09:04 41.71642 2.80279 33014 ft 407 kts 231°
2026-05-07 09:04 41.68049 2.74433 33017 ft 407 kts 231°
2026-05-07 09:05 41.64498 2.68541 33017 ft 408 kts 232°
2026-05-07 09:05 41.61001 2.62563 33022 ft 407 kts 232°
2026-05-07 09:06 41.57543 2.56588 33019 ft 407 kts 232°
2026-05-07 09:06 41.54080 2.50610 33018 ft 408 kts 232°
2026-05-07 09:07 41.50610 2.44651 33016 ft 406 kts 232°
2026-05-07 09:07 41.47144 2.38716 33019 ft 403 kts 232°
2026-05-07 09:08 41.43704 2.32835 33016 ft 405 kts 232°
2026-05-07 09:08 41.40219 2.26903 33032 ft 405 kts 232°
2026-05-07 09:09 41.36736 2.21015 33021 ft 406 kts 232°
2026-05-07 09:09 41.33252 2.15114 33019 ft 405 kts 232°
2026-05-07 09:10 41.29747 2.09261 33013 ft 402 kts 230°
2026-05-07 09:10 41.26018 2.03742 33016 ft 401 kts 228°
2026-05-07 09:11 41.22259 1.98303 33018 ft 402 kts 228°
2026-05-07 09:11 41.18496 1.92793 33019 ft 403 kts 229°
2026-05-07 09:12 41.14743 1.87240 33018 ft 404 kts 228°
2026-05-07 09:12 41.11122 1.81871 33004 ft 404 kts 229°
2026-05-07 09:13 41.07418 1.76354 33007 ft 402 kts 229°
2026-05-07 09:13 41.03686 1.70837 33008 ft 401 kts 228°
2026-05-07 09:14 40.99929 1.65357 33008 ft 401 kts 228°
2026-05-07 09:14 40.96182 1.59907 33005 ft 402 kts 228°
2026-05-07 09:15 40.92423 1.54426 33006 ft 402 kts 228°
2026-05-07 09:15 40.88657 1.48926 32998 ft 403 kts 228°
2026-05-07 09:16 40.84901 1.43454 33006 ft 401 kts 227°
2026-05-07 09:16 40.81167 1.38052 33008 ft 400 kts 227°
2026-05-07 09:17 40.77402 1.32615 33008 ft 401 kts 227°
2026-05-07 09:17 40.73641 1.27179 33008 ft 401 kts 228°
2026-05-07 09:18 40.69883 1.21747 33003 ft 401 kts 227°
2026-05-07 09:18 40.66117 1.16323 33003 ft 401 kts 227°
2026-05-07 09:19 40.62344 1.10890 33009 ft 402 kts 227°
2026-05-07 09:19 40.58590 1.05492 33004 ft 402 kts 227°
2026-05-07 09:20 40.54811 1.00065 33000 ft 402 kts 227°
2026-05-07 09:20 40.51019 0.94648 32999 ft 402 kts 227°
2026-05-07 09:21 40.47219 0.89240 33002 ft 402 kts 227°
2026-05-07 09:21 40.43431 0.83848 32993 ft 400 kts 227°
2026-05-07 09:22 40.39685 0.78518 32997 ft 398 kts 227°
2026-05-07 09:22 40.35918 0.73157 33007 ft 399 kts 227°
2026-05-07 09:23 40.32143 0.67801 32998 ft 399 kts 226°
2026-05-07 09:23 40.28393 0.62488 33002 ft 399 kts 227°
2026-05-07 09:24 40.24618 0.57147 32983 ft 399 kts 227°
2026-05-07 09:24 40.20834 0.51842 32995 ft 397 kts 226°
2026-05-07 09:25 40.17089 0.46592 33000 ft 396 kts 227°
2026-05-07 09:25 40.13324 0.41308 33004 ft 396 kts 227°
2026-05-07 09:26 40.09574 0.36038 33013 ft 398 kts 226°
2026-05-07 09:26 40.05829 0.30784 32997 ft 399 kts 226°
2026-05-07 09:27 40.02023 0.25462 32984 ft 398 kts 226°
2026-05-07 09:28 39.96405 0.17636 32995 ft 393 kts 226°
2026-05-07 09:28 39.92677 0.12456 32998 ft 394 kts 226°
2026-05-07 09:29 39.88931 0.07248 32997 ft 395 kts 226°
2026-05-07 09:29 39.85188 0.02041 32997 ft 396 kts 226°
2026-05-07 09:30 39.81409 -0.03206 33009 ft 397 kts 226°
2026-05-07 09:30 39.77638 -0.08410 32993 ft 395 kts 225°
2026-05-07 09:31 39.73873 -0.13591 32993 ft 393 kts 226°
2026-05-07 09:31 39.70127 -0.18745 32993 ft 394 kts 225°
2026-05-07 09:32 39.66348 -0.23945 32993 ft 395 kts 226°
2026-05-07 09:32 39.62590 -0.29111 32992 ft 395 kts 225°
2026-05-07 09:33 39.58809 -0.34306 32991 ft 396 kts 225°
2026-05-07 09:33 39.55047 -0.39465 32988 ft 394 kts 225°
2026-05-07 09:34 39.51284 -0.44611 32995 ft 392 kts 225°
2026-05-07 09:34 39.47584 -0.49806 32990 ft 392 kts 229°
2026-05-07 09:35 39.44283 -0.55410 32991 ft 394 kts 232°
2026-05-07 09:35 39.41577 -0.60170 32992 ft 395 kts 231°
2026-05-07 09:36 39.38280 -0.65888 32992 ft 394 kts 231°
2026-05-07 09:36 39.34993 -0.71497 32993 ft 392 kts 231°
2026-05-07 09:37 39.31691 -0.77097 33015 ft 390 kts 230°
2026-05-07 09:37 39.28389 -0.82690 33001 ft 395 kts 230°
2026-05-07 09:38 39.25044 -0.88340 32992 ft 395 kts 230°
2026-05-07 09:38 39.21711 -0.93946 32997 ft 395 kts 230°
2026-05-07 09:39 39.18370 -0.99557 32996 ft 396 kts 230°
2026-05-07 09:39 39.15012 -1.05205 32994 ft 395 kts 230°
2026-05-07 09:40 39.11688 -1.10797 32963 ft 393 kts 230°
2026-05-07 09:40 39.08366 -1.16380 33000 ft 393 kts 230°
2026-05-07 09:41 39.05050 -1.21934 32996 ft 397 kts 230°
2026-05-07 09:41 39.01665 -1.27600 32987 ft 398 kts 230°
2026-05-07 09:42 38.98289 -1.33216 32990 ft 397 kts 230°
2026-05-07 09:42 38.94961 -1.38817 32982 ft 396 kts 233°
2026-05-07 09:43 38.92047 -1.44872 32981 ft 398 kts 236°
2026-05-07 09:43 38.89226 -1.50955 32986 ft 399 kts 236°
2026-05-07 09:44 38.86307 -1.57046 32999 ft 399 kts 235°
2026-05-07 09:44 38.83369 -1.63046 32984 ft 397 kts 235°
2026-05-07 09:45 38.80424 -1.69028 32997 ft 398 kts 234°
2026-05-07 09:45 38.77476 -1.75024 32982 ft 399 kts 235°
2026-05-07 09:46 38.74517 -1.81054 32980 ft 399 kts 235°
2026-05-07 09:46 38.71557 -1.87055 32980 ft 399 kts 234°
2026-05-07 09:47 38.68564 -1.93071 32995 ft 400 kts 234°
2026-05-07 09:47 38.65586 -1.99062 32981 ft 401 kts 235°
2026-05-07 09:48 38.62603 -2.05078 32967 ft 400 kts 234°
2026-05-07 09:48 38.59642 -2.11048 32975 ft 397 kts 234°
2026-05-07 09:49 38.56685 -2.17000 32970 ft 398 kts 235°
2026-05-07 09:49 38.53710 -2.22986 32974 ft 399 kts 235°
2026-05-07 09:50 38.50718 -2.28995 32971 ft 400 kts 234°
2026-05-07 09:50 38.47716 -2.34955 32977 ft 401 kts 235°
2026-05-07 09:51 38.44708 -2.40933 32966 ft 400 kts 234°
2026-05-07 09:51 38.41700 -2.46895 32969 ft 401 kts 234°
2026-05-07 09:52 38.38702 -2.52856 32958 ft 400 kts 234°
2026-05-07 09:52 38.35702 -2.58822 32965 ft 401 kts 234°
2026-05-07 09:53 38.32669 -2.64838 32965 ft 402 kts 234°
2026-05-07 09:53 38.29643 -2.70824 32972 ft 403 kts 235°
2026-05-07 09:54 38.26604 -2.76818 32965 ft 401 kts 235°
2026-05-07 09:54 38.23581 -2.82731 32967 ft 400 kts 235°
2026-05-07 09:55 38.20553 -2.88656 32964 ft 401 kts 235°
2026-05-07 09:55 38.17517 -2.94609 32963 ft 403 kts 235°
2026-05-07 09:56 38.14464 -3.00587 32943 ft 402 kts 235°
2026-05-07 09:56 38.11426 -3.06521 32974 ft 402 kts 235°
2026-05-07 09:57 38.08382 -3.12470 32967 ft 404 kts 236°
2026-05-07 09:57 38.05316 -3.18466 32960 ft 404 kts 236°
2026-05-07 09:58 38.02237 -3.24417 32950 ft 405 kts 236°
2026-05-07 09:58 37.99147 -3.30379 32951 ft 403 kts 236°
2026-05-07 09:59 37.96078 -3.36304 32945 ft 403 kts 235°
2026-05-07 09:59 37.92991 -3.42270 32942 ft 403 kts 235°
2026-05-07 10:00 37.89896 -3.48219 32925 ft 409 kts 237°
2026-05-07 10:00 37.86763 -3.54257 32935 ft 409 kts 237°
2026-05-07 10:01 37.83692 -3.60201 32440 ft 399 kts 237°
2026-05-07 10:01 37.82185 -3.63108 32097 ft 392 kts 236°
2026-05-07 10:01 37.80689 -3.65972 31664 ft 391 kts 236°
2026-05-07 10:01 37.79179 -3.68851 31163 ft 392 kts 235°
2026-05-07 10:02 37.77679 -3.71705 30638 ft 394 kts 235°
2026-05-07 10:02 37.76166 -3.74588 30087 ft 396 kts 234°
2026-05-07 10:02 37.74632 -3.77509 29454 ft 398 kts 234°
2026-05-07 10:02 37.73104 -3.80416 28835 ft 393 kts 234°
2026-05-07 10:03 37.71602 -3.83257 28257 ft 390 kts 236°
2026-05-07 10:03 37.70090 -3.86080 27663 ft 390 kts 236°
2026-05-07 10:03 37.68582 -3.88943 27085 ft 387 kts 236°
2026-05-07 10:03 37.67104 -3.91780 26516 ft 384 kts 236°
2026-05-07 10:04 37.65650 -3.94572 25960 ft 381 kts 236°
2026-05-07 10:04 37.64212 -3.97319 25401 ft 377 kts 236°
2026-05-07 10:04 37.62768 -4.00066 24862 ft 373 kts 236°
2026-05-07 10:04 37.61333 -4.02798 24328 ft 370 kts 235°
2026-05-07 10:05 37.59928 -4.05475 23790 ft 367 kts 235°
2026-05-07 10:05 37.58508 -4.08156 23181 ft 366 kts 234°
2026-05-07 10:05 37.57088 -4.10820 22568 ft 363 kts 234°
2026-05-07 10:05 37.55699 -4.13417 22018 ft 358 kts 235°
2026-05-07 10:06 37.54303 -4.16030 21479 ft 357 kts 235°
2026-05-07 10:06 37.52929 -4.18604 20948 ft 356 kts 235°
2026-05-07 10:06 37.51547 -4.21197 20449 ft 354 kts 235°
2026-05-07 10:06 37.50175 -4.23773 19927 ft 352 kts 235°
2026-05-07 10:07 37.48832 -4.26300 19417 ft 351 kts 235°
2026-05-07 10:07 37.47475 -4.28854 18908 ft 349 kts 235°
2026-05-07 10:07 37.46121 -4.31398 18378 ft 348 kts 235°
2026-05-07 10:07 37.44766 -4.33943 17799 ft 347 kts 235°
2026-05-07 10:08 37.43440 -4.36438 17253 ft 345 kts 235°
2026-05-07 10:08 37.42107 -4.38943 16728 ft 342 kts 235°
2026-05-07 10:08 37.40804 -4.41389 16243 ft 339 kts 235°
2026-05-07 10:08 37.39489 -4.43856 15760 ft 337 kts 235°
2026-05-07 10:09 37.38186 -4.46298 15246 ft 336 kts 235°
2026-05-07 10:09 37.36877 -4.48732 14756 ft 334 kts 234°
2026-05-07 10:09 37.35539 -4.51114 14261 ft 333 kts 233°
2026-05-07 10:09 37.34206 -4.53458 13761 ft 332 kts 233°
2026-05-07 10:10 37.32874 -4.55832 13193 ft 331 kts 234°
2026-05-07 10:10 37.31562 -4.58216 12664 ft 327 kts 235°
2026-05-07 10:10 37.30303 -4.60541 12158 ft 323 kts 235°
2026-05-07 10:10 37.29056 -4.62886 11674 ft 319 kts 235°
2026-05-07 10:11 37.27846 -4.65181 11277 ft 315 kts 235°
2026-05-07 10:11 37.26644 -4.67473 11089 ft 314 kts 235°
2026-05-07 10:11 37.25432 -4.69782 11004 ft 317 kts 236°
2026-05-07 10:11 37.24245 -4.72041 10714 ft 307 kts 236°
2026-05-07 10:12 37.23091 -4.74246 10408 ft 298 kts 235°
2026-05-07 10:12 37.21967 -4.76398 10045 ft 291 kts 235°
2026-05-07 10:12 37.20826 -4.78473 9658 ft 283 kts 226°
2026-05-07 10:12 37.19262 -4.79860 9361 ft 272 kts 198°
2026-05-07 10:13 37.17454 -4.80189 9104 ft 263 kts 182°
2026-05-07 10:13 37.15637 -4.80204 8834 ft 256 kts 180°
2026-05-07 10:13 37.13884 -4.80192 8569 ft 253 kts 180°
2026-05-07 10:13 37.12134 -4.80149 8310 ft 249 kts 180°
2026-05-07 10:14 37.10412 -4.80084 8097 ft 244 kts 180°
2026-05-07 10:14 37.08747 -4.80027 7975 ft 241 kts 180°
2026-05-07 10:14 37.07039 -4.79985 7837 ft 245 kts 180°
2026-05-07 10:14 37.05351 -4.79939 7721 ft 236 kts 180°
2026-05-07 10:15 37.03762 -4.79917 7586 ft 226 kts 181°
2026-05-07 10:15 37.02192 -4.79917 7458 ft 225 kts 181°
2026-05-07 10:15 37.00633 -4.79919 7339 ft 222 kts 181°
2026-05-07 10:15 36.99093 -4.79913 7219 ft 220 kts 181°
2026-05-07 10:16 36.97581 -4.79905 7099 ft 218 kts 181°
2026-05-07 10:16 36.96055 -4.79903 6964 ft 221 kts 182°
2026-05-07 10:16 36.94497 -4.79903 6735 ft 223 kts 181°
2026-05-07 10:16 36.92974 -4.79821 6482 ft 220 kts 169°
2026-05-07 10:17 36.91494 -4.79261 6254 ft 223 kts 162°
2026-05-07 10:17 36.90042 -4.78599 5994 ft 220 kts 162°
2026-05-07 10:17 36.88598 -4.77945 5724 ft 220 kts 162°
2026-05-07 10:17 36.87173 -4.77301 5474 ft 220 kts 162°
2026-05-07 10:18 36.85779 -4.76515 5224 ft 219 kts 155°
2026-05-07 10:18 36.84432 -4.75597 4985 ft 220 kts 153°
2026-05-07 10:18 36.83101 -4.74656 4717 ft 219 kts 153°
2026-05-07 10:18 36.81784 -4.73727 4509 ft 214 kts 153°
2026-05-07 10:19 36.80496 -4.72825 4238 ft 211 kts 153°
2026-05-07 10:19 36.79224 -4.71938 3850 ft 208 kts 153°
2026-05-07 10:19 36.77981 -4.71086 3570 ft 202 kts 148°
2026-05-07 10:19 36.77147 -4.69748 3443 ft 196 kts 112°
2026-05-07 10:20 36.76583 -4.68237 3164 ft 188 kts 123°
2026-05-07 10:20 36.75900 -4.66879 2929 ft 184 kts 123°
2026-05-07 10:20 36.75288 -4.65497 2659 ft 177 kts 119°
2026-05-07 10:20 36.74719 -4.64163 2369 ft 169 kts 120°
2026-05-07 10:21 36.74186 -4.62929 2167 ft 156 kts 118°
2026-05-07 10:21 36.73721 -4.61795 2053 ft 137 kts 119°
2026-05-07 10:21 36.73282 -4.60748 1835 ft 136 kts 119°
2026-05-07 10:21 36.72849 -4.59727 1660 ft 134 kts 118°
2026-05-07 10:22 36.72424 -4.58694 1408 ft 132 kts 119°
2026-05-07 10:22 36.71995 -4.57706 1234 ft 128 kts 118°
2026-05-07 10:22 36.71594 -4.56741 1058 ft 128 kts 118°
2026-05-07 10:22 36.71160 -4.55725 969 ft 134 kts 117°
2026-05-07 10:23 36.70733 -4.54670 818 ft 138 kts 116°
2026-05-07 10:23 36.70302 -4.53608 646 ft 138 kts 117°
2026-05-07 10:23 36.69852 -4.52547 455 ft 140 kts 117°
2026-05-07 10:23 36.69388 -4.51445 235 ft 144 kts 117°
2026-05-07 10:24 36.68932 -4.50367 57 ft 133 kts 117°
2026-05-07 10:24 36.68560 -4.49487 48 ft 91 kts 117°
2026-05-07 10:24 36.68353 -4.48992 45 ft 49 kts 117°
2026-05-07 10:24 36.68238 -4.48722 42 ft 24 kts 119°
2026-05-07 10:25 36.68128 -4.48570 40 ft 23 kts 143°
2026-05-07 10:25 36.67999 -4.48493 40 ft 15 kts 199°
2026-05-07 10:25 36.67993 -4.48594 40 ft 14 kts 305°
2026-05-07 10:25 36.68048 -4.48705 40 ft 19 kts 298°
2026-05-07 10:26 36.68116 -4.48865 40 ft 21 kts 297°
2026-05-07 10:26 36.68183 -4.49030 41 ft 22 kts 297°
2026-05-07 10:26 36.68237 -4.49159 41 ft 11 kts 298°
2026-05-07 10:26 36.68272 -4.49249 41 ft 12 kts 287°
2026-05-07 10:27 36.68252 -4.49349 41 ft 13 kts 227°
2026-05-07 10:27 36.68186 -4.49424 42 ft 12 kts 222°
2026-05-07 10:27 36.68120 -4.49497 42 ft 13 kts 222°
2026-05-07 10:27 36.68047 -4.49578 42 ft 14 kts 220°
2026-05-07 10:28 36.67970 -4.49662 42 ft 15 kts 221°
2026-05-07 10:28 36.67891 -4.49750 43 ft 12 kts 221°
2026-05-07 10:28 36.67833 -4.49805 43 ft 11 kts 198°
2026-05-07 10:28 36.67775 -4.49763 43 ft 10 kts 131°
2026-05-07 10:29 36.67724 -4.49693 43 ft 11 kts 133°
2026-05-07 10:29 36.67675 -4.49624 43 ft 7 kts 130°
2026-05-07 10:29 36.67682 -4.49574 40 ft 6 kts 53°
2026-05-07 10:30 36.67707 -4.49545 43 ft 0 kts 41°